Tracking 18852 objects as of 23-Nov-2017
HD Live streaming from Space Station
objects crossing your sky now

FENGYUN 1C DEB

Track FENGYUN 1C DEB now!
10-day predictions


NORAD ID: 36280
Int'l Code: 1999-025DXH
Perigee: 842.4 km
Apogee: 940.2 km
Inclination: 99.0 °
Period: 102.7 minutes
Semi major axis: 7262 km
RCS: 0.0011 m2 (small)
Launch date: May 10, 1999
Source: People's Republic of China (PRC)
Launch site: Taiyaun Space Center, China (TSC)

Note: This is SATELLITE DEBRIS
aabbcc
Your satellite tracking list
Your tracking list is empty




NASA's NSSDC Master Catalog

Two Line Element Set (TLE):
1 36280U 99025DXH 17325.95677378  .00000350  00000-0  25020-3 0  9994
2 36280  99.0337   9.3845 0067349   5.9642 114.7357 14.02789745451135
Source of the keplerian elements: AFSPC